When you browse on this site, cookies collect data to enhance your experience and personalize the content and advertising you see.
Visit our Privacy Policy to learn more. By continuing to use the site, you agree to this use of cookies and data.
  • în România
  • Lista ţărilor
  • Pe 7 zile
  • Temperatura apei
  • Hartă satelitară
  • Meteo pe hartă
  • Widget-uri
  • user-avatar
    Intrare

    Meteo pe oră la Tuchola

    Astăzi, 24 Mai, Vineri

    Timp Temperatura Precipitaţii Vânt Presiune Umiditate
    00:00 +8°C° 0 mm 2 m/s 751 mmHg 83%
    01:00 +8°C° 0 mm 2 m/s 751 mmHg 90%
    02:00 +8°C° 0 mm 2 m/s 751 mmHg 90%
    03:00 +7°C° 0 mm 2 m/s 751 mmHg 91%
    04:00 +7°C° 0 mm 2 m/s 751 mmHg 92%
    05:00 +9°C° 0 mm 2 m/s 751 mmHg 85%
    06:00 +12°C° 0 mm 2 m/s 751 mmHg 79%
    07:00 +15°C° 0 mm 2 m/s 750 mmHg 69%
    08:00 +16°C° 0 mm 2 m/s 750 mmHg 62%
    09:00 +19°C° 0 mm 1 m/s 750 mmHg 55%
    10:00 +20°C° 0 mm 1 m/s 750 mmHg 48%
    11:00 +21°C° 0 mm 1 m/s 750 mmHg 46%
    12:00 +22°C° 0 mm 1 m/s 750 mmHg 43%
    13:00 +22°C° 0 mm 1 m/s 750 mmHg 40%
    14:00 +21°C° 0 mm 2 m/s 749 mmHg 42%
    15:00 +21°C° 0 mm 2 m/s 749 mmHg 43%
    16:00 +21°C° 0 mm 3 m/s 748 mmHg 44%
    17:00 +20°C° 0 mm 2 m/s 748 mmHg 51%
    18:00 +18°C° 0 mm 2 m/s 748 mmHg 58%
    19:00 +17°C° 0 mm 2 m/s 747 mmHg 65%
    20:00 +16°C° 0 mm 2 m/s 747 mmHg 67%
    21:00 +15°C° 0 mm 2 m/s 747 mmHg 70%
    22:00 +12°C° 0 mm 3 m/s 747 mmHg 72%
    23:00 +12°C° 0 mm 3 m/s 747 mmHg 73%

    Mâine, 25 Mai, Sâmbătă

    Timp Temperatura Precipitaţii Vânt Presiune Umiditate
    00:00 +12°C° 0 mm 3 m/s 747 mmHg 73%
    01:00 +11°C° 0 mm 3 m/s 747 mmHg 73%
    02:00 +11°C° 0 mm 3 m/s 747 mmHg 79%
    03:00 +10°C° 0 mm 3 m/s 747 mmHg 84%
    04:00 +10°C° 0 mm 2 m/s 747 mmHg 90%
    05:00 +11°C° 0 mm 3 m/s 747 mmHg 84%
    06:00 +12°C° 0 mm 3 m/s 747 mmHg 79%
    07:00 +13°C° 0 mm 4 m/s 747 mmHg 74%
    08:00 +14°C° 0 mm 4 m/s 748 mmHg 72%
    09:00 +14°C° 0 mm 4 m/s 748 mmHg 71%
    10:00 +14°C° 0 mm 5 m/s 748 mmHg 70%
    11:00 +15°C° 0 mm 5 m/s 748 mmHg 66%
    12:00 +16°C° 0 mm 5 m/s 748 mmHg 62%
    13:00 +17°C° 0 mm 5 m/s 748 mmHg 58%
    14:00 +16°C° 0 mm 5 m/s 748 mmHg 58%
    15:00 +17°C° 0 mm 4 m/s 748 mmHg 58%
    16:00 +17°C° 0 mm 4 m/s 748 mmHg 58%
    17:00 +15°C° 0 mm 4 m/s 748 mmHg 63%
    18:00 +14°C° 0 mm 3 m/s 748 mmHg 69%
    19:00 +13°C° 0 mm 3 m/s 748 mmHg 74%
    20:00 +12°C° 0 mm 2 m/s 748 mmHg 80%
    21:00 +10°C° 0 mm 2 m/s 748 mmHg 85%
    22:00 +9°C° 0 mm 2 m/s 748 mmHg 91%
    23:00 +8°C° 0 mm 2 m/s 748 mmHg 92%

    Poimâine, 26 Mai, Duminică

    Timp Temperatura Precipitaţii Vânt Presiune Umiditate
    00:00 +8°C° 0 mm 3 m/s 748 mmHg 93%
    01:00 +8°C° 0 mm 3 m/s 748 mmHg 94%
    02:00 +8°C° 0 mm 3 m/s 748 mmHg 94%
    03:00 +8°C° 0 mm 3 m/s 748 mmHg 95%
    04:00 +8°C° 0 mm 3 m/s 748 mmHg 95%
    05:00 +9°C° 0 mm 3 m/s 748 mmHg 90%
    06:00 +11°C° 0 mm 4 m/s 747 mmHg 85%
    07:00 +13°C° 0 mm 4 m/s 747 mmHg 80%
    08:00 +14°C° 0 mm 5 m/s 747 mmHg 74%
    09:00 +15°C° 0 mm 5 m/s 747 mmHg 69%
    10:00 +15°C° 0 mm 6 m/s 747 mmHg 64%
    11:00 +15°C° 0.1 mm 6 m/s 747 mmHg 64%
    12:00 +15°C° 0.1 mm 6 m/s 747 mmHg 64%
    13:00 +15°C° 0.1 mm 6 m/s 747 mmHg 64%
    14:00 +15°C° 0.1 mm 5 m/s 747 mmHg 66%
    15:00 +15°C° 0.1 mm 5 m/s 746 mmHg 67%
    16:00 +15°C° 0.1 mm 4 m/s 746 mmHg 69%
    17:00 +15°C° 0 mm 4 m/s 746 mmHg 72%
    18:00 +14°C° 0 mm 3 m/s 746 mmHg 74%
    19:00 +14°C° 0 mm 3 m/s 746 mmHg 77%
    20:00 +13°C° 0 mm 3 m/s 746 mmHg 81%
    21:00 +12°C° 0 mm 3 m/s 746 mmHg 84%
    22:00 +12°C° 0 mm 3 m/s 746 mmHg 88%
    23:00 +12°C° 0 mm 3 m/s 746 mmHg 88%

    27 Mai, Luni

    Timp Temperatura Precipitaţii Vânt Presiune Umiditate
    00:00 +12°C° 0 mm 3 m/s 746 mmHg 89%
    01:00 +12°C° 0 mm 3 m/s 746 mmHg 89%
    02:00 +12°C° 0.1 mm 4 m/s 746 mmHg 88%
    03:00 +12°C° 0.1 mm 4 m/s 745 mmHg 87%
    04:00 +12°C° 0.1 mm 4 m/s 745 mmHg 87%
    05:00 +13°C° 0.4 mm 4 m/s 745 mmHg 87%
    06:00 +13°C° 0.4 mm 4 m/s 745 mmHg 87%
    07:00 +14°C° 0.4 mm 5 m/s 745 mmHg 87%
    08:00 +14°C° 0.6 mm 5 m/s 744 mmHg 87%
    09:00 +15°C° 0.6 mm 5 m/s 744 mmHg 88%
    10:00 +15°C° 0.6 mm 5 m/s 744 mmHg 88%
    11:00 +16°C° 0.4 mm 5 m/s 744 mmHg 86%
    12:00 +16°C° 0.4 mm 6 m/s 744 mmHg 85%
    13:00 +17°C° 0.4 mm 6 m/s 745 mmHg 83%
    14:00 +17°C° 0 mm 6 m/s 745 mmHg 80%
    15:00 +17°C° 0 mm 5 m/s 745 mmHg 77%
    16:00 +17°C° 0 mm 5 m/s 745 mmHg 73%
    17:00 +17°C° 0 mm 4 m/s 745 mmHg 75%
    18:00 +17°C° 0 mm 3 m/s 745 mmHg 77%
    19:00 +16°C° 0 mm 1 m/s 746 mmHg 79%
    20:00 +15°C° 0 mm 1 m/s 746 mmHg 83%
    21:00 +13°C° 0 mm 1 m/s 746 mmHg 86%
    22:00 +12°C° 0 mm 1 m/s 747 mmHg 90%
    23:00 +11°C° 0 mm 1 m/s 747 mmHg 89%

    28 Mai, Marţi

    Timp Temperatura Precipitaţii Vânt Presiune Umiditate
    00:00 +11°C° 0 mm 1 m/s 747 mmHg 89%
    01:00 +10°C° 0 mm 1 m/s 747 mmHg 89%
    02:00 +10°C° 0 mm 1 m/s 746 mmHg 90%
    03:00 +10°C° 0 mm 1 m/s 746 mmHg 90%
    04:00 +10°C° 0 mm 1 m/s 746 mmHg 91%
    05:00 +12°C° 0 mm 1 m/s 746 mmHg 86%
    06:00 +13°C° 0 mm 2 m/s 746 mmHg 81%
    07:00 +15°C° 0 mm 2 m/s 747 mmHg 76%
    08:00 +16°C° 0 mm 2 m/s 747 mmHg 72%
    09:00 +17°C° 0 mm 2 m/s 747 mmHg 67%
    10:00 +19°C° 0 mm 2 m/s 747 mmHg 63%
    11:00 +19°C° 0 mm 3 m/s 746 mmHg 62%
    12:00 +19°C° 0 mm 3 m/s 746 mmHg 61%
    13:00 +19°C° 0 mm 3 m/s 746 mmHg 61%
    14:00 +18°C° 0.3 mm 3 m/s 746 mmHg 68%
    15:00 +18°C° 0.3 mm 3 m/s 746 mmHg 74%
    16:00 +17°C° 0.3 mm 4 m/s 746 mmHg 81%
    17:00 +15°C° 0.2 mm 4 m/s 746 mmHg 83%
    18:00 +14°C° 0.2 mm 4 m/s 746 mmHg 85%
    19:00 +13°C° 0.2 mm 3 m/s 746 mmHg 88%
    20:00 +12°C° 0 mm 3 m/s 746 mmHg 88%
    21:00 +12°C° 0 mm 3 m/s 746 mmHg 89%
    22:00 +11°C° 0 mm 3 m/s 746 mmHg 89%
    23:00 +11°C° 0 mm 3 m/s 746 mmHg 88%

    29 Mai, Miercuri

    Timp Temperatura Precipitaţii Vânt Presiune Umiditate
    00:00 +11°C° 0 mm 3 m/s 746 mmHg 87%
    01:00 +10°C° 0 mm 2 m/s 746 mmHg 86%
    02:00 +10°C° 0 mm 3 m/s 746 mmHg 86%
    03:00 +10°C° 0 mm 3 m/s 746 mmHg 86%
    04:00 +9°C° 0 mm 3 m/s 746 mmHg 86%
    05:00 +10°C° 0 mm 3 m/s 746 mmHg 80%
    06:00 +12°C° 0 mm 3 m/s 747 mmHg 75%
    07:00 +13°C° 0 mm 4 m/s 747 mmHg 69%
    08:00 +14°C° 0 mm 3 m/s 747 mmHg 62%
    09:00 +17°C° 0 mm 3 m/s 747 mmHg 56%
    10:00 +18°C° 0 mm 3 m/s 748 mmHg 50%
    11:00 +19°C° 0 mm 3 m/s 748 mmHg 48%
    12:00 +20°C° 0 mm 3 m/s 748 mmHg 46%
    13:00 +21°C° 0 mm 3 m/s 748 mmHg 45%
    14:00 +20°C° 0 mm 4 m/s 748 mmHg 47%
    15:00 +20°C° 0 mm 4 m/s 749 mmHg 48%
    16:00 +20°C° 0 mm 4 m/s 749 mmHg 50%
    17:00 +18°C° 0 mm 4 m/s 749 mmHg 55%
    18:00 +17°C° 0 mm 3 m/s 750 mmHg 61%
    19:00 +14°C° 0 mm 3 m/s 750 mmHg 66%
    20:00 +13°C° 0.1 mm 3 m/s 751 mmHg 70%
    21:00 +12°C° 0.1 mm 3 m/s 751 mmHg 74%
    22:00 +13°C° 0.1 mm 2 m/s 752 mmHg 79%
    23:00 +12°C° 0.2 mm 2 m/s 752 mmHg 83%
    Arată mai mult